StationID,Date,MaxTemp,MinTemp,Precipitation,Snowfall,SnowDepth
"CA001098955","1955-12-01",30.02,19.04,,,
"CA001098955","1955-12-02",30.92,17.96,,,
"CA001098955","1955-12-03",28.94,17.06,,,
"CA001098955","1955-12-04",26.96,-4.00,,,
"CA001098955","1955-12-05",21.02,-5.98,,,
"CA001098955","1955-12-06",35.06,12.02,,,
"CA001098955","1955-12-07",35.96,14.90,,,
"CA001098955","1955-12-08",28.04,19.94,,,
"CA001098955","1955-12-09",30.02,14.00,,,
"CA001098955","1955-12-10",30.92,26.06,,,
"CA001098955","1955-12-11",12.02,12.02,,,
"CA001098955","1955-12-12",10.04,1.94,,,
"CA001098955","1955-12-13",19.94,-25.06,,,
"CA001098955","1955-12-14",-3.10,-36.04,,,
"CA001098955","1955-12-15",-7.96,-35.14,,,
"CA001098955","1955-12-16",-9.04,-32.08,,,
"CA001098955","1955-12-17",-12.10,-18.04,,,
"CA001098955","1955-12-18",-0.94,-48.10,,,
"CA001098955","1955-12-19",-0.04,-36.04,,,
"CA001098955","1955-12-20",1.94,-13.00,,,
"CA001098955","1955-12-21",5.00,-12.10,,,
"CA001098955","1955-12-22",1.94,-11.02,,,
"CA001098955","1955-12-23",1.04,-23.98,,,
"CA001098955","1955-12-24",3.02,-10.12,,,
"CA001098955","1955-12-25",-0.04,-7.06,,,
"CA001098955","1955-12-26",-5.98,-7.96,,,
"CA001098955","1955-12-27",8.06,-2.02,,,
"CA001098955","1955-12-28",3.02,-14.08,,,
"CA001098955","1955-12-29",1.94,-28.12,,,
"CA001098955","1955-12-30",3.02,-19.12,,,
"CA001098955","1955-12-31",3.02,-16.06,,,
"CA001098955","1956-01-01",-0.04,-12.10,,,
"CA001098955","1956-01-02",-0.94,-14.08,,,
"CA001098955","1956-01-03",-2.02,-9.04,,,
"CA001098955","1956-01-04",3.02,-12.10,,,
"CA001098955","1956-01-05",-5.98,-7.96,,,
"CA001098955","1956-01-06",-5.08,-14.08,,,
"CA001098955","1956-01-07",-4.00,-11.02,,,
"CA001098955","1956-01-08",-10.12,-12.10,,,
"CA001098955","1956-01-09",-2.02,-16.06,,,
"CA001098955","1956-01-10",14.00,-14.08,,,
"CA001098955","1956-01-11",19.94,-0.94,,,
"CA001098955","1956-01-12",21.02,5.90,,,
"CA001098955","1956-01-13",3.02,-5.98,0.00,0.00,
"CA001098955","1956-01-14",6.98,-10.12,,,
"CA001098955","1956-01-15",19.94,-0.94,,,
"CA001098955","1956-01-16",32.00,-12.10,,,
"CA001098955","1956-01-17",37.94,-4.00,,,
"CA001098955","1956-01-18",35.96,8.96,,,
"CA001098955","1956-01-19",28.94,12.02,,,
"CA001098955","1956-01-20",33.08,10.04,,,
"CA001098955","1956-01-21",30.92,14.00,,,
"CA001098955","1956-01-22",33.98,12.02,,,
"CA001098955","1956-01-23",19.94,10.94,,,
"CA001098955","1956-01-24",-0.04,-0.04,0.00,0.00,
"CA001098955","1956-01-25",8.96,-16.06,,,
"CA001098955","1956-01-26",-0.04,-9.04,,,
"CA001098955","1956-01-27",-4.00,-7.96,,,
"CA001098955","1956-01-28",-20.02,-20.02,,,
"CA001098955","1956-01-29",-18.04,-41.08,,,
"CA001098955","1956-01-30",-23.98,-45.04,,,
"CA001098955","1956-01-31",-10.12,-41.08,,,
"CA001098955","1956-02-01",-0.04,-32.98,,,
"CA001098955","1956-02-02",21.92,-16.06,,,
"CA001098955","1956-02-03",33.98,-0.04,,,
"CA001098955","1956-02-04",33.98,14.90,,,
"CA001098955","1956-02-05",37.94,21.02,,,
"CA001098955","1956-02-06",32.00,23.00,,,
"CA001098955","1956-02-07",30.92,5.00,,,
"CA001098955","1956-02-08",37.04,6.98,,,
"CA001098955","1956-02-09",39.92,10.04,,,
"CA001098955","1956-02-10",28.94,17.96,,,
"CA001098955","1956-02-11",32.00,-0.04,,,
"CA001098955","1956-02-12",17.06,1.94,,,
"CA001098955","1956-02-13",-5.08,-7.06,,,
"CA001098955","1956-02-14",-18.04,-32.98,,,
"CA001098955","1956-02-15",-0.04,-56.02,,,
"CA001098955","1956-02-16",15.98,-32.08,,,
"CA001098955","1956-02-17",17.96,-10.12,,,
"CA001098955","1956-02-18",28.04,-5.08,,,
"CA001098955","1956-02-19",32.00,12.02,,,
"CA001098955","1956-02-20",10.04,10.04,,,
"CA001098955","1956-02-21",3.92,-14.08,,,
"CA001098955","1956-02-22",1.94,-21.10,,,
"CA001098955","1956-02-23",-0.04,-27.04,,,
"CA001098955","1956-02-24",10.04,-36.04,,,
"CA001098955","1956-02-25",5.90,-16.96,,,
"CA001098955","1956-02-26",8.06,-14.08,,,
"CA001098955","1956-02-27",19.94,-10.12,,,
"CA001098955","1956-02-28",28.04,-4.00,,,
"CA001098955","1956-02-29",,-2.02,,,
"CA001098955","1956-03-01",32.00,19.94,,,
"CA001098955","1956-03-02",33.98,-0.04,,,
"CA001098955","1956-03-03",30.02,15.98,,,
"CA001098955","1956-03-04",19.94,8.96,,,
"CA001098955","1956-03-05",1.04,-5.98,,,
"CA001098955","1956-03-06",24.08,-31.00,,,
"CA001098955","1956-03-07",24.08,-9.04,,,
"CA001098955","1956-03-08",8.06,-5.98,,,
"CA001098955","1956-03-09",1.04,-2.02,,,
"CA001098955","1956-03-10",24.08,-32.08,,,
"CA001098955","1956-03-11",26.96,-35.14,,,
"CA001098955","1956-03-12",30.02,8.96,,,
"CA001098955","1956-03-13",32.00,1.04,,,
"CA001098955","1956-03-14",35.96,1.94,,,
"CA001098955","1956-03-15",39.92,17.06,,,
"CA001098955","1956-03-16",42.08,24.08,,,
"CA001098955","1956-03-17",42.08,-0.94,,,
"CA001098955","1956-03-18",32.00,5.90,,,
"CA001098955","1956-03-19",24.98,14.90,,,
"CA001098955","1956-03-20",26.06,-11.02,,,
"CA001098955","1956-03-21",44.06,-10.12,,,
"CA001098955","1956-03-22",32.00,10.94,,,
"CA001098955","1956-03-23",39.92,1.94,,,
"CA001098955","1956-03-24",39.92,3.92,,,
"CA001098955","1956-03-25",42.08,3.92,,,
"CA001098955","1956-03-26",37.94,14.90,,,
"CA001098955","1956-03-27",32.00,5.90,,,
"CA001098955","1956-03-28",42.08,12.92,,,
"CA001098955","1956-03-29",33.98,19.04,,,
"CA001098955","1956-03-30",33.08,19.04,,,
"CA001098955","1956-03-31",,19.04,,,
